Simultaneous Nadir Overpasses (SNOs) Predictions

Prediction of SNOs between METOP-B and TERRA Satellite Orbit:

Table of predicted SNOs for the next 14.0 days since TLE Epoch: 9/7/2014
Index Date (METOP-B) Time (METOP-B) Lat,Lon (METOP-B) SZA (METOP-B ) Date (TERRA) Time (TERRA) Lat,Lon (TERRA) SZA (TERRA ) Distance(km) Time Diff (sec)
1 09/09/2014 22:14:24 81.34,-105.85 79.20 09/09/2014 22:14:27 81.33,-105.82 79.20 0.62 3
2 09/09/2014 23:05:04 -81.34, 61.94 100.74 09/09/2014 23:03:53 -81.35, 62.12 100.75 3.08 71
3 09/12/2014 16:58:05 -81.33, 153.02 99.76 09/12/2014 16:59:15 -81.34, 153.07 99.72 1.01 70
4 09/12/2014 17:48:44 81.34, -39.10 80.33 09/12/2014 17:48:41 81.34, -39.21 80.31 1.88 3
5 09/15/2014 12:32:25 -81.34,-140.28 98.62 09/15/2014 12:33:29 -81.34,-140.40 98.60 2.05 64
6 09/15/2014 13:23:05 81.34, 27.22 81.42 09/15/2014 13:22:55 81.35, 27.28 81.42 1.26 10
7 09/18/2014 08:06:45 -81.34, -74.02 97.53 09/18/2014 08:07:42 -81.34, -73.99 97.50 0.78 57
8 09/18/2014 08:57:25 81.34, 93.49 82.51 09/18/2014 08:57:08 81.34, 93.67 82.52 2.92 17




NCC Satellite Simultaneous Nadir Overpasses (SNOs) Prediction Service
